Location: Newark
(27.9675°N, 86.8869°E)
Time: 06:25:52
(UTC+00:00)

ISS - Visible Passes

Search period start: 17 September 2019 00:00
Search period end: 27 September 2019 00:00
Orbit: 411 x 421 km, 51.6° (Epoch: 17 September)

Date Brightness Start Highest point End Pass type
(mag) Time Alt. Az. Time Alt. Az. Time Alt. Az.
17 Sep -2.8 13:55:25 10° WSW 13:58:19 46° WNW 13:58:19 46° WNW visible
17 Sep -1.6 22:11:30 21° SE 22:11:30 21° SE 22:12:44 10° SE visible
18 Sep -3.9 13:06:54 10° SW 13:10:12 76° SE 13:13:03 13° NE visible
19 Sep -0.9 13:56:35 10° WNW 13:58:37 15° NW 14:00:28 11° N visible
20 Sep -1.7 13:07:11 10° WSW 13:10:02 26° NW 13:12:54 10° NNE visible
